Location: NJAA Observatory
(40.6819°N, 74.8979°W)
Time: 08:32:13
(UTC-04:00)

Cosmos 2237 Rocket - Visible Passes

Search period start: 22 October 2014 00:00
Search period end: 01 November 2014 00:00
Orbit: 836 x 850 km, 71.0° (Epoch: 21 October)

Date Brightness Start Highest point End Pass type
(mag) Time Alt. Az. Time Alt. Az. Time Alt. Az.
22 Oct 4.9 03:58:32 10° NNE 04:01:30 14° NE 04:04:27 10° E visible
22 Oct 2.2 05:40:47 10° NNW 05:46:27 86° ENE 05:52:03 10° SSE visible
22 Oct 3.2 18:49:03 10° SSE 18:53:36 25° ESE 18:58:09 10° NE visible
22 Oct 3.2 20:31:57 10° SW 20:37:22 45° WNW 20:42:31 11° N visible
23 Oct 4.9 03:43:55 10° NNE 03:46:42 14° NE 03:49:28 10° ENE visible
23 Oct 2.2 05:26:02 10° NNW 05:31:41 82° ENE 05:37:18 10° SSE visible
23 Oct 3.2 18:34:26 10° SSE 18:38:53 24° ESE 18:43:20 10° NE visible
23 Oct 3.1 20:17:09 10° SW 20:22:36 47° WNW 20:28:04 10° NNE visible
24 Oct 4.9 03:30:20 12° NNE 03:31:54 13° NE 03:34:28 10° ENE visible
24 Oct 2.2 05:12:18 16° NNW 05:16:56 78° ENE 05:22:32 10° SSE visible
24 Oct 3.1 20:02:21 10° SW 20:07:50 49° WNW 20:13:20 10° NNE visible
25 Oct 5.0 03:17:54 12° NE 03:17:54 12° NE 03:19:27 10° ENE visible
25 Oct 2.3 04:59:52 37° NNW 05:02:11 75° ENE 05:07:46 10° SSE visible
25 Oct 3.7 06:42:40 10° WNW 06:45:30 14° W 06:48:19 10° SW visible
25 Oct 3.0 19:47:34 10° SW 19:53:04 51° WNW 19:58:36 10° NNE visible
26 Oct 2.3 04:47:28 71° ENE 04:47:28 71° ENE 04:53:00 10° SSE visible
26 Oct 3.7 06:29:27 14° W 06:30:47 15° W 06:33:49 10° SW visible
26 Oct 2.9 19:32:46 10° SW 19:38:19 54° WNW 19:43:52 10° NNE visible
27 Oct 3.3 04:35:01 35° SE 04:35:01 35° SE 04:38:14 10° SSE visible
27 Oct 3.7 06:16:59 15° WSW 06:16:59 15° WSW 06:19:18 10° SW visible
27 Oct 2.9 19:17:59 10° SW 19:23:33 57° WNW 19:29:08 10° NNE visible
28 Oct 4.4 04:22:28 16° SE 04:22:28 16° SE 04:23:28 10° SSE visible
28 Oct 4.1 06:04:25 11° SW 06:04:25 11° SW 06:04:46 10° SW visible
28 Oct 2.8 19:03:12 10° SW 19:08:47 59° WNW 19:14:24 10° NNE visible
28 Oct 5.1 20:53:28 10° NW 20:54:06 10° NW 20:54:45 10° NW visible
29 Oct 2.7 18:48:26 10° SW 18:54:02 62° WNW 18:59:40 10° NNE visible
29 Oct 5.0 20:38:04 10° NW 20:39:18 11° NW 20:40:33 10° NNW visible
30 Oct 2.7 18:33:39 10° SSW 18:39:17 65° WNW 18:44:55 10° NNE visible
30 Oct 5.0 20:22:52 10° WNW 20:24:30 11° NW 20:26:08 10° NNW visible
31 Oct 2.6 18:18:53 10° SSW 18:24:31 68° WNW 18:30:11 10° NNE visible
31 Oct 4.9 20:07:45 10° WNW 20:09:42 12° NW 20:11:38 10° NNW visible
